CW0351 Weather Reports


time (UTC)temp
C
wind
direction
speed
KPH
gust
KPH
rain 1hr
cm
rain 24hr
cm
rain mn
cm
humidity
%
barometer
mb
20260505171555 27 225 4.8 20.9 0.00 0.00 0.00 34 1010.0
20260505170057 26 256 4.8 19.3 0.00 0.00 0.00 34 1010.0
20260505164601 26 236 6.4 17.7 0.00 0.00 0.00 37 1010.2
20260505163100 26 211 3.2 19.3 0.00 0.00 0.00 37 1010.3
20260505161553 26 0 4.8 16.1 0.00 0.00 0.00 39 1010.3
20260505153109 25 219 4.8 19.3 0.00 0.00 0.00 38 1010.7
20260505151557 25 238 4.8 14.5 0.00 0.00 0.00 42 1010.8
20260505124552 18 0 3.2 19.3 0.00 0.00 0.00 55 1011.8
20260505123104 18 0 1.6 9.7 0.00 0.00 0.00 56 1011.7
20260505121556 17 0 0.0 12.9 0.00 0.00 0.00 61 1011.5
20260505120050 16 0 1.6 11.3 0.00 0.00 0.00 63 1011.4
20260505114552 15 0 0.0 0.0 0.00 0.00 0.00 71 1011.4
20260505113055 13 0 0.0 0.0 0.00 0.00 0.00 79 1011.5
20260505111557 12 0 0.0 0.0 0.00 0.00 0.00 80 1011.2
20260505101603 11 0 0.0 0.0 0.00 0.00 0.00 76 1011.0
20260505100055 12 0 0.0 0.0 0.00 0.00 0.00 75 1010.8
20260505094553 12 0 0.0 0.0 0.00 0.00 0.00 75 1010.5
20260505093051 12 0 0.0 0.0 0.00 0.00 0.00 74 1010.6
20260505091557 12 0 0.0 0.0 0.00 0.00 0.00 74 1010.6
20260505090101 12 0 0.0 0.0 0.00 0.00 0.00 72 1010.3
20260505084552 12 0 0.0 0.0 0.00 0.00 0.00 71 1010.2
20260505083054 13 0 0.0 0.0 0.00 0.00 0.00 70 1010.4
20260505081602 13 0 0.0 0.0 0.00 0.00 0.00 69 1010.4
20260505080055 13 0 0.0 0.0 0.00 0.00 0.00 68 1010.4
20260505074607 13 0 0.0 0.0 0.00 0.00 0.00 68 1010.6
20260505073054 13 0 0.0 0.0 0.00 0.00 0.00 66 1010.5
20260505071554 14 0 0.0 0.0 0.00 0.00 0.00 64 1010.4
20260505070055 14 0 0.0 4.8 0.00 0.00 0.00 63 1010.5
20260505064556 14 0 0.0 0.0 0.00 0.00 0.00 62 1010.5
20260505063057 15 0 0.0 4.8 0.00 0.00 0.00 61 1010.4
20260505061618 15 0 0.0 6.4 0.00 0.00 0.00 60 1010.4
20260505060053 15 0 0.0 12.9 0.00 0.00 0.00 58 1010.4
20260505054616 15 0 0.0 8.0 0.00 0.00 0.00 58 1010.4
20260505053051 15 0 0.0 8.0 0.00 0.00 0.00 57 1010.4
20260505051558 15 0 0.0 9.7 0.00 0.00 0.00 55 1010.5
20260505050105 16 0 0.0 12.9 0.00 0.00 0.00 54 1010.4
20260505041558 15 0 0.0 9.7 0.00 0.00 0.00 53 1010.5
20260505040100 15 0 0.0 3.2 0.00 0.00 0.00 53 1010.4
20260505034553 15 0 0.0 0.0 0.00 0.00 0.00 53 1010.4
20260505033055 15 0 0.0 4.8 0.00 0.00 0.00 53 1010.4
20260505031601 15 0 0.0 0.0 0.00 0.00 0.00 53 1010.4
20260505030056 14 0 0.0 0.0 0.00 0.00 0.00 55 1010.3
20260505024607 14 0 0.0 0.0 0.00 0.00 0.00 56 1010.5
20260505023054 14 0 0.0 0.0 0.00 0.00 0.00 56 1010.7
20260505021609 15 0 0.0 0.0 0.00 0.00 0.00 54 1010.7
20260505020055 15 0 0.0 0.0 0.00 0.00 0.00 51 1010.7
20260505014555 15 0 0.0 0.0 0.00 0.00 0.00 51 1010.6
20260505013058 15 0 0.0 0.0 0.00 0.00 0.00 50 1010.5
20260505011558 16 0 0.0 0.0 0.00 0.00 0.00 48 1010.4
20260505010057 16 0 0.0 0.0 0.00 0.00 0.00 45 1010.2
20260505004557 17 0 0.0 0.0 0.00 0.00 0.00 43 1010.0
20260505003054 18 0 0.0 0.0 0.00 0.00 0.00 40 1010.0
20260505001557 18 0 0.0 0.0 0.00 0.00 0.00 39 1009.9
20260505000059 19 0 0.0 8.0 0.00 0.00 0.00 37 1009.7
20260504234555 19 0 0.0 14.5 0.00 0.00 0.00 37 1009.8
20260504233102 20 0 0.0 12.9 0.00 0.00 0.00 35 1009.6
20260504231556 20 200 4.8 20.9 0.00 0.00 0.00 33 1009.5
20260504230058 20 0 1.6 17.7 0.00 0.00 0.00 33 1009.5
20260504224554 20 0 0.0 16.1 0.00 0.00 0.00 35 1009.4
20260504223102 21 0 3.2 19.3 0.00 0.00 0.00 33 1009.4
20260504221606 21 0 3.2 19.3 0.00 0.00 0.00 33 1009.6
20260504220136 22 198 1.6 12.9 0.00 0.00 0.00 32 1009.7
20260504214558 22 0 1.6 22.5 0.00 0.00 0.00 34 1009.6
20260504213126 22 0 6.4 20.9 0.00 0.00 0.00 31 1009.6
20260504211558 22 211 0.0 20.9 0.00 0.00 0.00 32 1009.6
20260504210101 22 173 1.6 17.7 0.00 0.00 0.00 31 1009.6
20260504204603 22 250 1.6 14.5 0.00 0.00 0.00 30 1009.8
20260504203053 22 207 4.8 22.5 0.00 0.00 0.00 31 1009.9
20260504201554 22 259 9.7 24.1 0.00 0.00 0.00 32 1010.0
20260504200110 22 213 6.4 20.9 0.00 0.00 0.00 31 1010.1
20260504194549 22 273 3.2 24.1 0.00 0.00 0.00 31 1010.2
20260504193051 22 225 3.2 24.1 0.00 0.00 0.00 31 1010.2
20260504191559 22 128 0.0 16.1 0.00 0.00 0.00 31 1010.2
20260504190054 21 242 6.4 20.9 0.00 0.00 0.00 34 1010.4
20260504184600 21 225 3.2 22.5 0.00 0.00 0.00 29 1010.7
20260504183051 21 242 6.4 19.3 0.00 0.00 0.00 30 1011.0
20260504181553 21 0 3.2 20.9 0.00 0.00 0.00 35 1011.0
20260504180055 20 202 6.4 20.9 0.00 0.00 0.00 33 1011.4
20260504174556 21 0 6.4 19.3 0.00 0.00 0.00 34 1011.6
20260504173100 20 208 4.8 20.9 0.00 0.00 0.00 34 1011.8